Regional Weather Roundup
Issued by NWS Charleston, SC

Current Version | Previous Version | Graphics & Text | Print | Product List | Glossary On
Versions: 1 2 3 4 5 6 7 8 9 10 11 12 13 14 15 16 17 18 19 20 21 22 23 24 25 26 27 28 29 30 31 32 33 34 35 36 37 38 39 40 41 42 43 44 45 46 47 48 49 50
000 ASUS42 KCHS 022027 RWRCHS REGIONAL WEATHER ROUNDUP NATIONAL WEATHER SERVICE CHARLESTON SC 400 PM EDT THU JUL 02 2015 NOTE: "FAIR" INDICATES FEW OR NO CLOUDS BELOW 12,000 FEET WITH NO SIGNIFICANT WEATHER AND/OR OBSTRUCTIONS TO VISIBILITY. NOT ALL STATIONS ARE QUALITY CONTROLLED BY THE NATIONAL WEATHER SERVICE. USE DATA WITH CAUTION...ESPECIALLY DEWPOINT OBSERVATIONS. SCZ027-030-031-034>040-042>050-022100- ...SOUTHEAST SOUTH CAROLINA... CITY SKY/WX TMP DP RH WIND PRES REMARKS N CHARLESTON MOSUNNY 90 72 55 S16G22 29.95F HX 97 WATERFRONT PAR N/A 87 73 62 SW10 29.94F HX 94 MOUNT PLEASANT LGT RAIN 91 73 55 S17 29.95F HX 100 JOHNS ISLAND FAIR 86 77 74 S15 29.97F HX 97 PINOPOLIS NOT AVBL MONCKS CORNER FAIR 93 66 40 SW10 29.93F HX 96 SUMMERVILLE FAIR 93 72 49 S6 29.94F HX 100 BEAUFORT MCAS PTSUNNY 94 70 45 SW14 29.96F HX 100 BEAUFORT ARPT FAIR 90 77 66 S8G17 29.95F HX 102 HILTON HEAD IS MOSUNNY 86 77 74 S7 29.99F HX 97 WALTERBORO PTCLDY 91 68 46 S13 29.94F HX 95 ALLENDALE FAIR 93 68 43 VRB6G14 29.92F HX 97 ...SOUTHERN MIDLANDS AND PEE DEE... CITY SKY/WX TMP DP RH WIND PRES REMARKS GEORGETOWN NOT AVBL KINGSTREE NOT AVBL ORANGEBURG SUNNY 93 66 40 W15 29.93F HX 96 BARNWELL FAIR 91 72 52 SW10G17 29.93F HX 98 AIKEN NOT AVBL MANNING FAIR 90 64 43 S10G16 29.92F HX 91 COLUMBIA PTSUNNY 91 67 44 SW8G17 29.90F HX 94 SUMTER SUNNY 92 68 45 SW12 29.89F HX 95 FLORENCE MOSUNNY 92 68 45 SW16 29.90F HX 96 MYRTLE BEACH MOSUNNY 91 70 49 SW17 29.96F HX 97 N MYRTLE BEACH PTSUNNY 88 76 67 S22 29.94F HX 99 $$ GAZ063-065-086>088-099>101-113>116-118-119-134>141-150-022100- ...SOUTHEAST GEORGIA... CITY SKY/WX TMP DP RH WIND PRES REMARKS SAVANNAH ARPT PTSUNNY 92 68 45 SW12 29.97F HX 96 HUNTER AAF SUNNY 92 71 50 SW14 29.95F HX 99 FORT STEWART MOSUNNY 92 70 49 W10 29.96F HX 97 STATESBORO NOT AVBL SYLVANIA PTCLDY 92 73 53 SW9 29.95F HX 100 CLAXTON FAIR 90 73 58 S8 29.96F HX 98 ...CSRA...CENTRAL AND FAR SOUTHEAST GEORGIA... CITY SKY/WX TMP DP RH WIND PRES REMARKS THOMSON CLOUDY 75 74 95 CALM 29.99R VSB 1/4 AUGUSTA-BUSH MOSUNNY 92 67 43 SW8G23 29.91F HX 95 AUGUSTA-DANIEL PTSUNNY 92 67 43 S12G18 29.92F HX 95 SWAINSBORO FAIR 91 73 55 SW5 29.96F HX 100 VIDALIA PTSUNNY 90 70 51 SW10 29.97F HX 95 EASTMAN TSTM 79 68 69 W15G24 30.05R HAZLEHURST MOCLDY 90 73 57 SW5 29.98S HX 98 ALMA PTSUNNY 90 71 53 W12G20 30.00F HX 96 WAYCROSS PTSUNNY 92 75 57 W10 30.00S HX 104 JESUP FAIR 95 72 46 W6 29.98F HX 103 BAXLEY FAIR 91 72 52 W7G17 29.99S HX 98 BRUNSWICK MOSUNNY 95 70 43 SW12 29.99F HX 101 SAINT SIMONS MOSUNNY 92 68 45 SW10G20 30.00S HX 96 $$ SCZ027-028-034-036>038-045-046-048>050-GAZ119-141-022100- ...LAKE AND SUPPLEMENTAL COASTAL OBSERVATIONS... STATION/POSITION TIME TEMP WIND PRES WAVE SWELL AIR SEA DIR/SP/G HT/PER HT/PER/DIR (UTC) (F) (DEG/KT/KT) (MB) (FT/S) (FT/S/D) UPR LAKE MARION NOT AVBL WINYAH BAY 1945 87 210/ 13 1014.0F LAKE MURRAY 1900 88 260/ 13/ 16 1012.2F ACE BASIN NERRS 1900 90 110/ 2 1016.0S FORT PULASKI 2000 91 85 220/ 8/ 12 1015.3F SAPELO ISLAND 2000 93 220/ 12 1015.0F $$ ANZ835-935-AMZ111-154-330-350-352-354-370-450-454-472-022100- ...C-MAN AND BUOY OBSERVATIONS... STATION/POSITION TIME TEMP WIND PRES WAVE SWELL AIR SEA DIR/SP/G HT/PER HT/PER/DIR (UTC) (F) (DEG/KT/KT) (MB) (FT/S) (FT/S/D) BUOY 41004 1950 82 82 210/ 14/ 16 1015.1F 4/ 7 2/ 7 BUOY 41008 1950 80 80 180/ 16/ 17 1016.0F 2/ 9 2/100/ 9 FOLLY BEACH CMAN 2000 82 180/ 16/ 18 1015.1F CAPERS NEARSHORE 1908 81 210/ 16/ 19 1015.8F FRIPP NEARSHORE 1900 82 180/ 12/ 14 1015.7F STATION/POSITION TIME TEMP WIND PRES WAVE SWELL AIR SEA DIR/SP/G HT/PER HT/PER/DIR (UTC) (F) (DEG/KT/KT) (MB) (FT/S) (FT/S/D) 5E ST. MARYS GA 1921 80 N/A 2/ 9 FRYING PAN BUOY 1950 82 80 210/ 16/ 19 1015.3F 4/ 6 2/ 90/ 8 BUOY 41025 1950 82 83 220/ 21/ 25 1012.8F 5/ 4 2/140/ 8 CAPE LOOKOUT NC 2000 83 210/ 15/ 21 1013.3F BUOY 41002 1950 79 80 200/ 12/ 16 1019.3F 6/ 6 5/230/ 6 BUOY 41010 1920 84 85 220/ 8/ 10 1020.0F ST AUGUSTINE FL 2000 73 74 200/ 6/ 7 1019.7F $$

USA.gov is the U.S. government's official web portal to all federal, state and local government web resources and services.